| time (UTC) | temp F | wind direction | speed knots | gust knots | rain 1hr in | rain 24hr in | rain mn in | humidity % | barometer mb |
| 20260505193036 | 76 | 298 | 3.5 | 8.7 | 0.00 | 0.00 | 0.00 | 48 | 1014.5 |
| 20260505191536 | 76 | 297 | 3.5 | 9.6 | 0.00 | 0.00 | 0.00 | 49 | 1014.5 |
| 20260505190036 | 75 | 297 | 3.5 | 9.6 | 0.00 | 0.00 | 0.00 | 50 | 1014.7 |
| 20260505183036 | 74 | 279 | 5.2 | 12.2 | 0.00 | 0.00 | 0.00 | 51 | 1014.8 |
| 20260505181608 | 73 | 267 | 4.3 | 11.3 | 0.00 | 0.00 | 0.00 | 53 | 1014.9 |
| 20260505180036 | 72 | 266 | 4.3 | 11.3 | 0.00 | 0.00 | 0.00 | 54 | 1014.8 |
| 20260505174532 | 71 | 279 | 5.2 | 10.4 | 0.00 | 0.00 | 0.00 | 56 | 1015.0 |
| 20260505173106 | 69 | 273 | 5.2 | 12.2 | 0.00 | 0.00 | 0.00 | 58 | 1014.9 |
| 20260505171536 | 67 | 275 | 5.2 | 11.3 | 0.00 | 0.00 | 0.00 | 61 | 1014.9 |
| 20260505170038 | 66 | 280 | 5.2 | 10.4 | 0.00 | 0.00 | 0.00 | 61 | 1014.9 |
| 20260505163032 | 67 | 299 | 6.1 | 15.6 | 0.00 | 0.00 | 0.00 | 61 | 1014.9 |
| 20260505153033 | 64 | 307 | 4.3 | 9.6 | 0.00 | 0.00 | 0.00 | 66 | 1014.7 |
| 20260505151532 | 62 | 300 | 4.3 | 10.4 | 0.00 | 0.00 | 0.00 | 69 | 1014.6 |
| 20260505124531 | 59 | 324 | 3.5 | 7.0 | 0.00 | 0.00 | 0.00 | 72 | 1013.3 |
| 20260505123037 | 59 | 323 | 2.6 | 8.7 | 0.00 | 0.00 | 0.00 | 71 | 1013.1 |
| 20260505120152 | 61 | 300 | 4.3 | 9.6 | 0.00 | 0.00 | 0.00 | 69 | 1012.9 |
| 20260505114535 | 61 | 286 | 4.3 | 8.7 | 0.00 | 0.00 | 0.00 | 69 | 1012.8 |
| 20260505113038 | 61 | 294 | 3.5 | 9.6 | 0.00 | 0.00 | 0.00 | 69 | 1012.7 |
| 20260505101535 | 62 | 279 | 5.2 | 13.0 | 0.00 | 0.00 | 0.00 | 67 | 1012.0 |
| 20260505100045 | 62 | 296 | 4.3 | 11.3 | 0.00 | 0.00 | 0.00 | 68 | 1012.0 |
| 20260505094534 | 62 | 291 | 4.3 | 13.9 | 0.00 | 0.00 | 0.00 | 68 | 1011.9 |
| 20260505093033 | 62 | 300 | 4.3 | 9.6 | 0.00 | 0.00 | 0.00 | 69 | 1011.9 |
| 20260505091534 | 62 | 305 | 3.5 | 8.7 | 0.00 | 0.00 | 0.00 | 68 | 1011.7 |
| 20260505090037 | 64 | 317 | 3.5 | 7.0 | 0.00 | 0.00 | 0.00 | 65 | 1011.6 |
| 20260505083035 | 64 | 299 | 2.6 | 9.6 | 0.00 | 0.00 | 0.00 | 65 | 1011.6 |
| 20260505081530 | 64 | 300 | 3.5 | 10.4 | 0.00 | 0.00 | 0.00 | 65 | 1011.5 |
| 20260505074531 | 64 | 297 | 2.6 | 9.6 | 0.00 | 0.00 | 0.00 | 65 | 1011.4 |
| 20260505064534 | 64 | 276 | 0.9 | 5.2 | 0.00 | 0.00 | 0.00 | 63 | 1011.0 |
| 20260505063106 | 66 | 268 | 0.0 | 5.2 | 0.00 | 0.00 | 0.00 | 60 | 1011.0 |
| 20260505060142 | 66 | 288 | 2.6 | 9.6 | 0.00 | 0.00 | 0.00 | 58 | 1010.8 |
| 20260505054641 | 66 | 279 | 1.7 | 7.0 | 0.00 | 0.00 | 0.00 | 57 | 1010.7 |
| 20260505053143 | 67 | 257 | 0.9 | 8.7 | 0.00 | 0.00 | 0.00 | 55 | 1010.6 |
| 20260505051537 | 68 | 266 | 3.5 | 10.4 | 0.00 | 0.00 | 0.00 | 53 | 1010.4 |
| 20260505040153 | 70 | 267 | 5.2 | 14.8 | 0.00 | 0.00 | 0.00 | 50 | 1009.6 |
| 20260505040144 | 70 | 265 | 4.3 | 15.6 | 0.00 | 0.00 | 0.00 | 50 | 1009.4 |
| 20260505033030 | 70 | 275 | 3.5 | 8.7 | 0.00 | 0.00 | 0.00 | 50 | 1009.2 |
| 20260505031533 | 71 | 269 | 3.5 | 13.9 | 0.00 | 0.00 | 0.00 | 49 | 1009.0 |
| 20260505030037 | 72 | 268 | 3.5 | 11.3 | 0.00 | 0.00 | 0.00 | 47 | 1008.8 |
| 20260505013036 | 78 | 274 | 6.1 | 15.6 | 0.00 | 0.00 | 0.00 | 41 | 1008.4 |
| 20260505011536 | 79 | 269 | 7.8 | 15.6 | 0.00 | 0.00 | 0.00 | 41 | 1008.3 |
| 20260505004653 | 80 | 276 | 7.0 | 14.8 | 0.00 | 0.00 | 0.00 | 39 | 1008.3 |
| 20260505003037 | 81 | 282 | 7.0 | 13.9 | 0.00 | 0.00 | 0.00 | 38 | 1008.4 |
| 20260505000040 | 82 | 288 | 7.0 | 15.6 | 0.00 | 0.00 | 0.00 | 37 | 1008.5 |
| 20260504234535 | 82 | 290 | 7.8 | 15.6 | 0.00 | 0.00 | 0.00 | 37 | 1008.5 |
| 20260504233142 | 83 | 285 | 7.8 | 15.6 | 0.00 | 0.00 | 0.00 | 37 | 1008.5 |
| 20260504231607 | 83 | 287 | 7.8 | 15.6 | 0.00 | 0.00 | 0.00 | 37 | 1008.6 |
| 20260504230036 | 84 | 293 | 6.1 | 13.0 | 0.00 | 0.00 | 0.00 | 37 | 1008.8 |
| 20260504224537 | 84 | 299 | 7.0 | 12.2 | 0.00 | 0.00 | 0.00 | 37 | 1009.0 |
| 20260504223106 | 84 | 290 | 6.1 | 12.2 | 0.00 | 0.00 | 0.00 | 37 | 1009.2 |
| 20260504221606 | 84 | 295 | 6.1 | 12.2 | 0.00 | 0.00 | 0.00 | 37 | 1009.3 |
| 20260504220032 | 84 | 300 | 6.1 | 13.9 | 0.00 | 0.00 | 0.00 | 38 | 1009.4 |
| 20260504214536 | 83 | 293 | 5.2 | 12.2 | 0.00 | 0.00 | 0.00 | 38 | 1009.6 |
| 20260504213031 | 83 | 296 | 5.2 | 12.2 | 0.00 | 0.00 | 0.00 | 38 | 1009.7 |
| 20260504210036 | 82 | 295 | 3.5 | 8.7 | 0.00 | 0.00 | 0.00 | 39 | 1010.0 |
| 20260504204532 | 81 | 287 | 3.5 | 8.7 | 0.00 | 0.00 | 0.00 | 39 | 1010.2 |
| 20260504203033 | 80 | 299 | 3.5 | 8.7 | 0.00 | 0.00 | 0.00 | 40 | 1010.3 |
| 20260504201641 | 80 | 301 | 4.3 | 8.7 | 0.00 | 0.00 | 0.00 | 41 | 1010.5 |
| 20260504200037 | 80 | 308 | 4.3 | 12.2 | 0.00 | 0.00 | 0.00 | 42 | 1010.7 |
| 20260504194643 | 80 | 301 | 4.3 | 10.4 | 0.00 | 0.00 | 0.00 | 41 | 1010.7 |